Regional Weather Roundup
Issued by NWS New Orleans/Baton Rouge, LA

Home | Current Version | Previous Version | Text Only | Print | Product List | Glossary Off
Versions: 1 2 3 4 5 6 7 8 9 10 11 12 13 14 15 16 17 18 19 20 21 22 23 24 25 26 27 28 29 30 31 32 33 34 35 36 37 38 39 40 41 42 43 44 45 46 47 48 49 50

795
ASUS44 KLIX 041505
RWRLIX
NEW ORLEANS REGIONAL WEATHER ROUNDUP
NATIONAL WEATHER SERVICE NEW ORLEANS LA
900 AM CST WED MAR 04 2015

NOTE: "FAIR" INDICATES FEW OR NO CLOUDS BELOW 12,000 FEET WITH NO
      SIGNIFICANT WEATHER AND/OR OBSTRUCTIONS TO VISIBILITY.
      SKY/WX - SKY CONDITION AND SIGNIFICANT WEATHER.
      TMP - AIR TEMPERATURE.     DP    - DEWPOINT TEMPERATURE.
      RH  - RELATIVE HUMIDITY.   PRES  - PRESSURE.
      HI  - HEAT INDEX.          WCI   - WIND CHILL INDEX.

*  THESE STATIONS ARE NOT NWS OR FAA STATIONS AND ARE NOT UNDER
   NWS QUALITY CONTROL.

LAZ038-040-048-061>063-065>067-069-041600-
SOUTHEAST LOUISIANA

CITY           SKY/WX    TMP DP  RH WIND       PRES   REMARKS
N.O. AUDUBON     N/A     76  73  91 MISG        N/A
N.O. INTL ARPT MOSUNNY   74  68  81 S7        30.01R
N.O. LAKEFRONT PTSUNNY   75  68  78 S8        30.02S
SLIDELL        CLOUDY    72  68  87 S6        30.02S
BATON ROUGE    PTSUNNY   73  69  87 S10       29.99S
BOOTHVILLE     PTSUNNY   73  70  90 SE5       30.03R
BELLE CHASSE   PTSUNNY   73  67  81 S6        30.02R
BOGALUSA*        N/A     71  67  86 S7        30.03S
GALLIANO*      SUNNY     77  72  83 S8        30.02R
NEW ROADS*     CLOUDY    70  68  92 SE8       29.99R
GONZALES*      CLOUDY    69  69 100 CALM      30.00R FOG
HAMMOND*       FOG       68  66  94 CALM      30.03S VSB 1/2
HOUMA*         MOSUNNY   73  72  94 SE6       30.00R
PORT FOURCHON* MOSUNNY   75  70  83 S6        30.05R

$$

MSZ070-080>082-041600-
SOUTHERN MISSISSIPPI

CITY           SKY/WX    TMP DP  RH WIND       PRES   REMARKS
MCCOMB         CLOUDY    69  67  93 S10       30.01R
GULFPORT       PTSUNNY   70  66  87 S9        30.04R
BILOXI         MOSUNNY   70  70 100 S12       30.04R
PASCAGOULA     SUNNY     75  67  76 S10       30.05R
STENNIS ARPT*  PTSUNNY   72  64  78 S7        30.04R

$$

COASTAL OBSERVATIONS
LAKE AND NEARSHORE STATIONS

STATION/POSITION TIME  TEMP    WIND        PRES    WAVE
                       AIR SEA DIR/SP/G            HT/PER
                 (UTC) (F)     (DEG/KT/KT) (MB)    (FT/S)
PASCAGOULA       1500   69     150/  6/  9 1017.1
WAVELAND YACHT   1500   63 61  160/  6/  7 1016.9
GRAND ISLE       1500   70 64  190/  3/  5 1017.1
SOUTHWEST PASS   1500   65 45  150/  6/  7 1017.0
NEW CANAL        1500   72     190/  3/  5 1016.8
SHELL BEACH      1500   68 60  140/  5/  7 1016.5

OFFSHORE STATIONS

STATION/POSITION TIME  TEMP    WIND        PRES    WAVE
                       AIR SEA DIR/SP/G            HT/PER
                 (UTC) (F)     (DEG/KT/KT) (MB)    (FT/S)
64 S DAUPHIN ISL 1424   73 71  150/ 12/ 16 1017.9    4/ 7

$$




USA.gov is the U.S. government's official web portal to all federal, state and local government web resources and services.